TimeMST,TemperatureF,Dew PointF,Humidity,Sea Level PressureIn,VisibilityMPH,Wind Direction,Wind SpeedMPH,Gust SpeedMPH,PrecipitationIn,Events,Conditions,WindDirDegrees,DateUTC
12:13 AM,12.9,10.0,88,29.93,1.2,West,11.5,-,0.00,Snow,Light Snow,280,2014-02-22 07:13:00
12:21 AM,12.9,10.0,88,29.94,1.2,West,11.5,-,0.00,Snow,Light Snow,280,2014-02-22 07:21:00
12:54 AM,12.0,10.0,92,30.10,1.0,West,12.7,-,0.00,Snow,Light Snow,280,2014-02-22 07:54:00
1:29 AM,12.0,10.0,92,29.95,1.5,West,10.4,-,0.00,Snow,Light Snow,280,2014-02-22 08:29:00
1:40 AM,12.9,10.0,88,29.95,2.0,West,8.1,-,0.00,Snow,Light Snow,270,2014-02-22 08:40:00
1:54 AM,12.0,10.0,92,30.11,2.5,West,9.2,-,0.00,Snow,Light Snow,270,2014-02-22 08:54:00
2:02 AM,12.0,10.0,92,29.96,2.5,West,9.2,-,0.00,Snow,Light Snow,270,2014-02-22 09:02:00
2:20 AM,12.0,10.0,92,29.96,1.8,West,5.8,-,0.00,Snow,Light Snow,260,2014-02-22 09:20:00
2:32 AM,12.0,9.0,88,29.96,1.8,West,5.8,-,0.00,Snow,Light Snow,260,2014-02-22 09:32:00
2:54 AM,12.0,10.0,92,30.11,1.5,WNW,6.9,-,0.01,Snow,Light Snow,290,2014-02-22 09:54:00
3:07 AM,12.0,9.0,88,29.96,2.5,West,6.9,-,0.00,Snow,Light Snow,280,2014-02-22 10:07:00
3:38 AM,10.0,8.1,92,29.97,4.0,WNW,11.5,-,0.00,Snow,Light Snow,300,2014-02-22 10:38:00
3:54 AM,10.0,7.0,87,30.13,6.0,WNW,12.7,-,0.00,Snow,Light Snow,300,2014-02-22 10:54:00
4:54 AM,8.1,5.0,87,30.15,5.0,WNW,8.1,-,0.00,Snow,Light Snow,290,2014-02-22 11:54:00
5:03 AM,8.1,6.1,92,29.98,9.0,West,8.1,-,0.00,,Overcast,280,2014-02-22 12:03:00
5:54 AM,8.1,6.1,92,30.17,9.0,West,8.1,-,0.00,,Overcast,270,2014-02-22 12:54:00
6:50 AM,8.6,6.8,92,29.99,9.0,WNW,8.1,-,0.00,,Overcast,290,2014-02-22 13:50:00
6:54 AM,8.1,6.1,92,30.17,10.0,WNW,9.2,-,0.00,,Overcast,300,2014-02-22 13:54:00
7:54 AM,7.0,5.0,92,30.20,4.0,WSW,8.1,-,0.00,Snow,Light Snow,250,2014-02-22 14:54:00
8:24 AM,3.0,1.9,95,30.02,8.0,SW,5.8,-,0.00,,Overcast,230,2014-02-22 15:24:00
8:47 AM,5.0,3.0,92,30.02,9.0,West,8.1,-,0.00,,Scattered Clouds,260,2014-02-22 15:47:00
8:54 AM,6.1,3.9,91,30.22,10.0,WSW,6.9,-,0.00,,Partly Cloudy,250,2014-02-22 15:54:00
9:54 AM,7.0,5.0,92,30.23,10.0,West,6.9,-,N/A,,Partly Cloudy,260,2014-02-22 16:54:00
10:21 AM,8.1,5.0,87,30.04,8.0,WNW,5.8,-,N/A,,Mostly Cloudy,300,2014-02-22 17:21:00
10:41 AM,8.1,3.9,83,30.04,10.0,WNW,4.6,-,N/A,,Scattered Clouds,290,2014-02-22 17:41:00
10:54 AM,8.1,3.9,83,30.24,10.0,West,8.1,-,N/A,,Clear,260,2014-02-22 17:54:00
11:54 AM,10.0,3.9,76,30.22,10.0,WSW,5.8,-,N/A,,Clear,240,2014-02-22 18:54:00
12:54 PM,10.9,3.9,73,30.22,10.0,West,8.1,-,N/A,,Clear,270,2014-02-22 19:54:00
1:54 PM,12.9,5.0,71,30.20,10.0,Calm,Calm,-,N/A,,Clear,0,2014-02-22 20:54:00
2:54 PM,16.0,6.1,65,30.19,10.0,Calm,Calm,-,N/A,,Scattered Clouds,0,2014-02-22 21:54:00
3:54 PM,14.0,6.1,71,30.21,10.0,Calm,Calm,-,N/A,,Overcast,0,2014-02-22 22:54:00
4:54 PM,14.0,5.0,67,30.23,10.0,SW,3.5,-,N/A,,Mostly Cloudy,220,2014-02-22 23:54:00
5:54 PM,10.9,5.0,77,30.25,10.0,SW,4.6,-,N/A,,Scattered Clouds,220,2014-02-23 00:54:00
6:54 PM,9.0,3.0,77,30.26,10.0,Calm,Calm,-,N/A,,Partly Cloudy,0,2014-02-23 01:54:00
7:54 PM,8.1,3.9,83,30.28,10.0,East,4.6,-,N/A,,Partly Cloudy,80,2014-02-23 02:54:00
8:54 PM,8.1,3.9,83,30.29,10.0,ESE,6.9,-,N/A,,Overcast,120,2014-02-23 03:54:00
9:54 PM,7.0,3.9,87,30.31,10.0,ESE,3.5,-,N/A,,Overcast,120,2014-02-23 04:54:00
10:54 PM,9.0,3.9,80,30.29,10.0,East,10.4,-,N/A,,Overcast,100,2014-02-23 05:54:00
11:54 PM,9.0,3.9,80,30.28,10.0,East,11.5,-,N/A,,Overcast,100,2014-02-23 06:54:00